Fulton, NY

2:24 PM EDT on October 14, 2019 (GMT -0400)
Oswego County

Weather History for KFZY - May, 2019

Change the Weather History Date:

Monday, May 20, 2019

  Actual Average (KSYR) Record (KSYR)
Temperature  
Mean Temperature 60 °F -  
Max Temperature 73 °F 70 °F 90 °F (1962)
Min Temperature 46 °F 48 °F 32 °F (1944)
Degree Days  
Heating Degree Days 5    
Growing Degree Days 10 (Base 50)    
Moisture  
Dew Point 52 °F    
Average Humidity 70    
Maximum Humidity 87    
Minimum Humidity 53    
Precipitation  
Precipitation 0.11 in - - ()
Sea Level Pressure  
Sea Level Pressure 29.78 in    
Wind  
Wind Speed 9 mph (WSW)    
Max Wind Speed 24 mph    
Max Gust Speed 39 mph    
Visibility 10 miles    
Events Rain    
Averages and records for this station are not official NWS values.
T = Trace of Precipitation, MM = Missing Value Source: NWS Daily Summary

Daily Weather History Graph

Daily Weather History Graph

Search for Another Location

Airport or City:

Astronomy

May. 20, 2019 Rise Set
Actual Time 5:36 AM EDT 8:28 PM EDT
Civil Twilight 5:03 AM EDT 9:01 PM EDT
Nautical Twilight 4:20 AM EDT 9:44 PM EDT
Astronomical Twilight 3:31 AM EDT 10:33 PM EDT
Moon 10:27 PM EDT (5/20) 7:03 AM EDT (5/20)
Length of Visible Light 15h 58m
Length of Day
14h 51m
Waning Gibbous, 96% of the Moon is Illuminated
May 20
Waning Gibbous
May 26
Last Quarter
Jun 3
New
Jun 10
First Quarter
Jun 17
Full

Hourly Weather History & Observations

Time (EDT) Temp. Dew Point Humidity Pressure Visibility Wind Dir Wind Speed Gust Speed Precip Events Conditions
12:54 AM 63.0 °F 57.9 °F 84% 29.78 in 10.0 mi SSW 4.6 mph - 0.07 in Rain Heavy Rain
1:54 AM 63.0 °F 59.0 °F 87% 29.75 in 10.0 mi Variable 5.8 mph - 0.03 in Rain Light Rain
2:54 AM 63.0 °F 59.0 °F 87% 29.71 in 10.0 mi SSE 5.8 mph - 0.01 in Rain Light Rain
3:54 AM 63.0 °F 59.0 °F 87% 29.72 in 10.0 mi South 5.8 mph - 0.00 in   Mostly Cloudy
4:54 AM 64.0 °F 59.0 °F 84% 29.71 in 10.0 mi South 5.8 mph - N/A   Mostly Cloudy
5:54 AM 64.0 °F 57.9 °F 80% 29.72 in 10.0 mi South 8.1 mph - N/A   Mostly Cloudy
6:54 AM 64.9 °F 57.9 °F 78% 29.72 in 10.0 mi South 9.2 mph - N/A   Overcast
7:54 AM 64.9 °F 57.9 °F 78% 29.73 in 10.0 mi SSW 6.9 mph - 0.00 in Rain Light Rain
8:18 AM 66.9 °F 59.0 °F 76% 29.72 in 10.0 mi SSW 5.8 mph - 0.00 in   Overcast
8:31 AM 66.9 °F 59.0 °F 76% 29.72 in 10.0 mi SSW 6.9 mph - 0.00 in   Overcast
8:54 AM 66.9 °F 59.0 °F 76% 29.72 in 10.0 mi SW 6.9 mph - 0.00 in   Overcast
9:54 AM 70.0 °F 60.1 °F 71% 29.73 in 10.0 mi SW 6.9 mph - N/A   Overcast
10:54 AM 69.1 °F 55.9 °F 63% 29.73 in 10.0 mi West 11.5 mph - N/A   Overcast
11:54 AM 72.0 °F 55.0 °F 55% 29.73 in 10.0 mi WNW 11.5 mph 19.6 mph N/A   Partly Cloudy
12:54 PM 70.0 °F 53.1 °F 55% 29.73 in 10.0 mi West 9.2 mph - N/A   Overcast
1:54 PM 68.0 °F 55.0 °F 63% 29.74 in 10.0 mi West 17.3 mph 26.5 mph N/A   Overcast
2:54 PM 66.9 °F 52.0 °F 59% 29.75 in 10.0 mi West 16.1 mph 27.6 mph N/A   Mostly Cloudy
3:54 PM 63.0 °F 46.9 °F 56% 29.78 in 10.0 mi West 24.2 mph 39.1 mph N/A   Mostly Cloudy
4:54 PM 61.0 °F 45.0 °F 56% 29.80 in 10.0 mi WNW 19.6 mph 38.0 mph N/A   Clear
5:54 PM 57.9 °F 41.0 °F 53% 29.82 in 10.0 mi WNW 19.6 mph 33.4 mph N/A   Clear
6:54 PM 55.9 °F 39.9 °F 55% 29.83 in 10.0 mi West 19.6 mph 33.4 mph N/A   Clear
7:54 PM 54.0 °F 39.9 °F 59% 29.88 in 10.0 mi West 16.1 mph 27.6 mph N/A   Overcast
8:54 PM 51.1 °F 39.9 °F 66% 29.91 in 10.0 mi West 16.1 mph 21.9 mph N/A   Overcast
9:54 PM 48.9 °F 39.9 °F 71% 29.94 in 10.0 mi West 12.7 mph - N/A   Scattered Clouds
10:54 PM 48.9 °F 37.9 °F 66% 29.95 in 10.0 mi West 13.8 mph 20.7 mph N/A   Overcast
11:54 PM 46.9 °F 37.0 °F 68% 29.95 in 10.0 mi WNW 19.6 mph 24.2 mph N/A   Overcast